Погода в Майском

Россия / Владимирская область     56°25′29″N   38°52′57″E
темп.,
°C
ветер,
м/с
пор.,
м/с
влажн.,
%
обл.,
%
осадки,
мм/ч
давл.,
гПа
погр.,
м
22 апреля, чт
чт2200:00+3ююз3796100 0.0 1011243
03:00+3ю4897100 0.0 1012248
06:00+3ю599693 0.1 1013378
09:00+7ююз698192 0.1 1013693
12:00+9ююз7969100 0.1 10141238
15:00+10юз687177 0.3 10141099
18:00+11ююз47726 0.3 1015603
21:00+7ю4108941 0.3 1016181
23 апреля, пт
пт2300:00+6ююв411915 0.0 1016239
03:00+5ююв411945 0.0 1015235
06:00+5ю5129513 0.0 1015300
09:00+11ю6117459 0.0 1015628
12:00+15ю8125359 0.2 10142052
15:00+16ю8124777 0.3 10122662
18:00+13ююз81259100 1.0 1012956
21:00+7сз469198 1.7 1013246
24 апреля, сб
сб2400:00+6всв2595100 0.1 1011160
03:00+7ююв51190100 0.2 1008400
06:00+7ю3993100 0.4 1006725
09:00+1зсз4897100 3.8 1006255
12:00+3з3699100 3.3 1007336
15:00+3з3598100 3.5 1008425
18:00+4зсз3695100 0.1 1007454
21:00+2сз51196100 0.3 1007544
25 апреля, вс
вс2500:00+1з3896100 0.2 1007301
03:00+1з4109580 0.2 1007275
06:00−1з512865 0.0 1007373
09:00+3з7107647 0.0 10071104
12:00+6з71056100 0.1 10082003
15:00+7з7104898 0.3 10082324
18:00+5з5105997 0.1 10091465
21:00+1юз310815 0.1 1010243
26 апреля, пн
пн2600:000зюз410865 0.0 1011248
03:00−1юз39895 0.0 1011217
06:00−1юз48835 0.0 1012271
09:00+5юз57595 0.0 10121093
12:00+7зюз6744100 0.0 10112402
15:00+8зюз564399 0.2 10111875
18:00+6зюз146087 0.5 1010550
21:00+3юз2274100 0.6 101024